• en Belgique
  • Liste des pays
  • À 7 jours
  • Température de l'eau
  • Carte satellitaire
  • Carte météo
  • Widgets météo
  • user-avatar
    Se connecter

    Météo par heure à Polotsk

    Ce jour, 15 Octobre, Lundi

    Heure Température Précipitation Vent Pression Humidité
    00:00 +9°C° 0 mm 2 m/s 757 mmHg 88%
    01:00 +9°C° 0 mm 2 m/s 757 mmHg 87%
    02:00 +8°C° 0 mm 2 m/s 757 mmHg 86%
    03:00 +8°C° 0 mm 2 m/s 757 mmHg 85%
    04:00 +7°C° 0 mm 2 m/s 756 mmHg 83%
    05:00 +7°C° 0 mm 2 m/s 756 mmHg 81%
    06:00 +8°C° 0 mm 2 m/s 756 mmHg 78%
    07:00 +8°C° 0 mm 2 m/s 756 mmHg 75%
    08:00 +8°C° 0 mm 2 m/s 757 mmHg 68%
    09:00 +10°C° 0 mm 3 m/s 757 mmHg 63%
    10:00 +12°C° 0 mm 3 m/s 757 mmHg 57%
    11:00 +13°C° 0 mm 3 m/s 757 mmHg 52%
    12:00 +14°C° 0 mm 3 m/s 757 mmHg 51%
    13:00 +16°C° 0 mm 3 m/s 756 mmHg 49%
    14:00 +17°C° 0 mm 3 m/s 756 mmHg 48%
    15:00 +16°C° 0 mm 3 m/s 756 mmHg 54%
    16:00 +13°C° 0 mm 3 m/s 756 mmHg 60%
    17:00 +13°C° 0 mm 2 m/s 756 mmHg 66%
    18:00 +12°C° 0 mm 2 m/s 755 mmHg 68%
    19:00 +10°C° 0 mm 3 m/s 755 mmHg 70%
    20:00 +10°C° 0 mm 3 m/s 755 mmHg 72%
    21:00 +9°C° 0 mm 3 m/s 755 mmHg 73%
    22:00 +9°C° 0 mm 3 m/s 755 mmHg 74%
    23:00 +9°C° 0 mm 2 m/s 755 mmHg 75%

    Demain, 16 Octobre, Mardi

    Heure Température Précipitation Vent Pression Humidité
    00:00 +8°C° 0 mm 2 m/s 755 mmHg 75%
    01:00 +8°C° 0 mm 2 m/s 755 mmHg 75%
    02:00 +8°C° 0 mm 2 m/s 755 mmHg 75%
    03:00 +8°C° 0 mm 2 m/s 755 mmHg 76%
    04:00 +7°C° 0 mm 2 m/s 755 mmHg 76%
    05:00 +7°C° 0 mm 2 m/s 755 mmHg 76%
    06:00 +7°C° 0 mm 2 m/s 755 mmHg 75%
    07:00 +8°C° 0 mm 3 m/s 755 mmHg 74%
    08:00 +8°C° 0 mm 3 m/s 755 mmHg 72%
    09:00 +10°C° 0 mm 3 m/s 755 mmHg 67%
    10:00 +12°C° 0 mm 3 m/s 755 mmHg 61%
    11:00 +14°C° 0 mm 3 m/s 755 mmHg 56%
    12:00 +16°C° 0 mm 3 m/s 755 mmHg 54%
    13:00 +17°C° 0 mm 3 m/s 755 mmHg 52%
    14:00 +18°C° 0 mm 3 m/s 754 mmHg 51%
    15:00 +16°C° 0 mm 3 m/s 754 mmHg 57%
    16:00 +15°C° 0 mm 2 m/s 754 mmHg 63%
    17:00 +13°C° 0 mm 2 m/s 754 mmHg 69%
    18:00 +13°C° 0 mm 2 m/s 754 mmHg 72%
    19:00 +12°C° 0 mm 2 m/s 754 mmHg 75%
    20:00 +10°C° 0 mm 2 m/s 754 mmHg 78%
    21:00 +10°C° 0 mm 2 m/s 754 mmHg 80%
    22:00 +9°C° 0 mm 2 m/s 754 mmHg 81%
    23:00 +9°C° 0 mm 2 m/s 754 mmHg 83%

    Après-demain, 17 Octobre, Mercredi

    Heure Température Précipitation Vent Pression Humidité
    00:00 +9°C° 0 mm 2 m/s 754 mmHg 84%
    01:00 +10°C° 0 mm 1 m/s 754 mmHg 85%
    02:00 +9°C° 0 mm 1 m/s 754 mmHg 87%
    03:00 +9°C° 0 mm 1 m/s 754 mmHg 87%
    04:00 +9°C° 0 mm 1 m/s 754 mmHg 88%
    05:00 +9°C° 0 mm 1 m/s 754 mmHg 89%
    06:00 +9°C° 0 mm 1 m/s 754 mmHg 88%
    07:00 +9°C° 0 mm 1 m/s 754 mmHg 87%
    08:00 +10°C° 0 mm 1 m/s 754 mmHg 86%
    09:00 +12°C° 0 mm 2 m/s 754 mmHg 79%
    10:00 +14°C° 0 mm 2 m/s 755 mmHg 73%
    11:00 +15°C° 0 mm 2 m/s 755 mmHg 66%
    12:00 +16°C° 0 mm 2 m/s 755 mmHg 63%
    13:00 +17°C° 0 mm 2 m/s 754 mmHg 61%
    14:00 +18°C° 0 mm 2 m/s 754 mmHg 58%
    15:00 +16°C° 0 mm 1 m/s 754 mmHg 65%
    16:00 +15°C° 0 mm 1 m/s 754 mmHg 71%
    17:00 +13°C° 0 mm 1 m/s 754 mmHg 78%
    18:00 +13°C° 0 mm 1 m/s 754 mmHg 81%
    19:00 +12°C° 0 mm 1 m/s 754 mmHg 83%
    20:00 +11°C° 0 mm 1 m/s 754 mmHg 86%
    21:00 +11°C° 0 mm 1 m/s 754 mmHg 87%
    22:00 +11°C° 0 mm 1 m/s 754 mmHg 88%
    23:00 +10°C° 0 mm 1 m/s 754 mmHg 90%

    18 Octobre, Jeudi

    Heure Température Précipitation Vent Pression Humidité
    00:00 +10°C° 0 mm 1 m/s 754 mmHg 90%
    01:00 +10°C° 0 mm 1 m/s 754 mmHg 90%
    02:00 +10°C° 0 mm 1 m/s 754 mmHg 91%
    03:00 +10°C° 0 mm 1 m/s 754 mmHg 91%
    04:00 +9°C° 0 mm 1 m/s 754 mmHg 91%
    05:00 +9°C° 0 mm 1 m/s 754 mmHg 92%
    06:00 +10°C° 0 mm 1 m/s 754 mmHg 91%
    07:00 +10°C° 0 mm 1 m/s 754 mmHg 91%
    08:00 +10°C° 0 mm 1 m/s 754 mmHg 90%
    09:00 +12°C° 0 mm 1 m/s 753 mmHg 83%
    10:00 +14°C° 0 mm 1 m/s 753 mmHg 76%
    11:00 +16°C° 0 mm 2 m/s 753 mmHg 69%
    12:00 +17°C° 0 mm 2 m/s 753 mmHg 67%
    13:00 +18°C° 0 mm 2 m/s 753 mmHg 65%
    14:00 +19°C° 0 mm 2 m/s 752 mmHg 63%
    15:00 +17°C° 0 mm 2 m/s 752 mmHg 69%
    16:00 +16°C° 0 mm 1 m/s 752 mmHg 76%
    17:00 +15°C° 0 mm 1 m/s 752 mmHg 82%
    18:00 +14°C° 0 mm 1 m/s 752 mmHg 85%
    19:00 +14°C° 0 mm 1 m/s 752 mmHg 87%
    20:00 +13°C° 0 mm 1 m/s 752 mmHg 89%
    21:00 +13°C° 0 mm 1 m/s 752 mmHg 90%
    22:00 +12°C° 0 mm 1 m/s 752 mmHg 90%
    23:00 +12°C° 0 mm 1 m/s 752 mmHg 91%

    19 Octobre, Vendredi

    Heure Température Précipitation Vent Pression Humidité
    00:00 +12°C° 0 mm 1 m/s 751 mmHg 92%
    01:00 +12°C° 0 mm 1 m/s 751 mmHg 92%
    02:00 +11°C° 0 mm 1 m/s 751 mmHg 92%
    03:00 +11°C° 0 mm 1 m/s 751 mmHg 93%
    04:00 +11°C° 0 mm 1 m/s 751 mmHg 93%
    05:00 +10°C° 0 mm 1 m/s 751 mmHg 93%
    06:00 +11°C° 0 mm 1 m/s 751 mmHg 93%
    07:00 +11°C° 0 mm 1 m/s 751 mmHg 93%
    08:00 +11°C° 0 mm 1 m/s 751 mmHg 92%
    09:00 +13°C° 0 mm 1 m/s 751 mmHg 86%
    10:00 +14°C° 0 mm 1 m/s 750 mmHg 79%
    11:00 +16°C° 0 mm 1 m/s 750 mmHg 72%
    12:00 +18°C° 0 mm 1 m/s 750 mmHg 70%
    13:00 +18°C° 0 mm 1 m/s 750 mmHg 68%
    14:00 +19°C° 0 mm 1 m/s 750 mmHg 65%
    15:00 +15°C° 0 mm 0 m/s 750 mmHg 71%
    16:00 +14°C° 0 mm 0 m/s 749 mmHg 77%
    17:00 +13°C° 0 mm 0 m/s 749 mmHg 83%
    18:00 +12°C° 0 mm 0 m/s 749 mmHg 86%
    19:00 +13°C° 0 mm 1 m/s 749 mmHg 88%
    20:00 +12°C° 0 mm 1 m/s 749 mmHg 90%
    21:00 +12°C° 0 mm 1 m/s 749 mmHg 91%
    22:00 +11°C° 0 mm 1 m/s 749 mmHg 92%
    23:00 +10°C° 0 mm 0 m/s 749 mmHg 93%

    20 Octobre, Samedi

    Heure Température Précipitation Vent Pression Humidité
    00:00 +11°C° 0 mm 1 m/s 749 mmHg 93%
    01:00 +11°C° 0 mm 1 m/s 749 mmHg 94%
    02:00 +10°C° 0 mm 1 m/s 749 mmHg 94%
    03:00 +10°C° 0 mm 1 m/s 749 mmHg 95%
    04:00 +10°C° 0 mm 1 m/s 749 mmHg 95%
    05:00 +10°C° 0 mm 1 m/s 749 mmHg 96%
    06:00 +10°C° 0 mm 1 m/s 749 mmHg 96%
    07:00 +10°C° 0 mm 1 m/s 749 mmHg 95%
    08:00 +10°C° 0 mm 1 m/s 749 mmHg 95%
    09:00 +11°C° 0 mm 1 m/s 749 mmHg 91%
    10:00 +12°C° 0 mm 1 m/s 749 mmHg 87%
    11:00 +13°C° 0 mm 1 m/s 749 mmHg 83%
    12:00 +13°C° 0 mm 1 m/s 749 mmHg 82%
    13:00 +14°C° 0 mm 1 m/s 749 mmHg 81%
    14:00 +14°C° 0 mm 1 m/s 748 mmHg 80%
    15:00 +13°C° 0 mm 1 m/s 748 mmHg 83%
    16:00 +13°C° 0 mm 1 m/s 748 mmHg 86%
    17:00 +12°C° 0 mm 1 m/s 748 mmHg 89%
    18:00 +12°C° 0 mm 1 m/s 748 mmHg 89%
    19:00 +12°C° 0 mm 1 m/s 748 mmHg 90%
    20:00 +11°C° 0 mm 1 m/s 748 mmHg 91%
    21:00 +11°C° 0 mm 1 m/s 748 mmHg 92%
    22:00 +11°C° 0 mm 1 m/s 748 mmHg 93%
    23:00 +10°C° 0 mm 1 m/s 748 mmHg 94%
    Voir plus